COSMOS 2251 DEB, 34122

Orbit data source: Space-Track

COSMOS 2251 DEB, 34122 is space debris in LEO originally from a launch on Wed, 16 Jun 1993 UTC launched from the Plesetsk Missile And Space Complex (PKMTR). The debris from Iridium 33, an American commercial communications satellite, has been tracked extensively since its accidental collision with the defunct Russian satellite Cosmos 2251 in 2009. This event, occurring at high speed in low Earth orbit (LEO), generated thousands of pieces of space debris, significantly increasing the risk of further collisions. The Iridium 33 debris cloud has impacted space traffic management and orbital debris mitigation strategies, making it a subject of ongoing study in space situational awareness.

Loading next visibility...
Identifier
34122, 1993-036KT
Orbit
LEO
Country
Flag of CISCIS
Related business
Manufacturer
Unknown
Mission
Spacecraft
Bus & Motor
Unknown
Mass
Unknown
Launch date (UTC)
1993-06-16 (33 years ago)
Launch vehicle
Unknown
Launch site
Plesetsk Missile And Space Complex (PKMTR)
Object type
Payload
Rocket body
Debris
Shape & HBR
Unknown shape, 0.2 m
Radar Cross Section
Medium (>0.1 m² and <1 m²)

Expand to show TLE details & history
Last TLE update: 11 hours ago

TLE from 11 hours ago
0 COSMOS 2251 DEB
1 34122U 93036KT  26263.35826431  .00002239  00000-0  37716-3 0  9997
2 34122  74.0343 295.2403 0076722 120.6460 253.2175 14.68213165928149
Epoch: 2026-09-20T08:35Z
TLE epoch observation values (Epoch: 2026-09-20T08:35:54.036Z)
Latitude
12.479°
Longitude
170.62217°
Altitude
684.656 km
Speed
7.507 km/s
True Right ascension
19h 55m 24s
True Declination
12° 24' 21"
Sunlit
Object was in full shadow at epoch
Visualization orbit readout
Latitude
Unknown
Longitude
Unknown
Altitude
Unknown
Speed
Unknown
Apparent Right ascension
Unknown
Apparent Declination
Unknown
Sunlit
N/A
Visualization observer readout
Local Sidereal Time
12:33:20
Azimuth
Unknown
Elevation
Unknown
Doppler factor
Unknown
Orbital elements
Apogee altitude
718.398 km
Perigee altitude
610.335 km
Semi-major axis
7,042.504 km
Eccentricity
0.00767
Inclination
74.0343°
RAAN
295.2403°
Arg. of periapsis
120.646°
True anomaly
252.37813°
Mean anomaly
253.2175°
Eccentric anomaly
252.79758°
Mean motion
3.67242 °/min
Orbital period
98.03 mins
BSTAR
0.00037716
Loading maneuver chart data...
Computing Atmospheric mass density...

Documentation

Showing up to 5 results
|